Temp
11 13 16 18 19 20 20 20 20 21 23 23 24 25 26 28 29 29 28 32 31 28 27 25 25 25 25 24 26 26 25 26 28 27 30 29 29 30 30 30 31 30 27 26 24
11 15 17 18 20 20 20 20 21 22 23 24 24 25 26 28 28 27 33 32 31 28 25 24 24 24 23 25 26 27 25 28 29 29 28 29 29 30 29 30 30 28 27 25 24
12 16 18 19 19 20 20 20 21 22 23 24 24 25 26 27 26 31 33 32 31 30 28 26 26 25 24 26 26 28 28 30 30 30 30 29 29 30 29 28 29 27 26 24 23
14 16 18 19 20 20 20 21 21 22 23 24 24 26 27 26 31 32 32 31 31 30 29 28 27 26 27 25 29 30 30 31 30 30 29 30 31 30 29 29 30 27 26 24 24
15 17 18 19 20 20 21 21 21 22 23 24 25 25 26 27 29 33 32 31 29 27 27 28 28 28 31 31 32 32 31 31 31 30 30 31 31 30 30 30 30 27 26 25 24
17 18 19 19 20 20 21 21 22 23 23 24 25 25 24 30 33 33 32 31 30 29 31 30 31 31 32 33 33 33 31 32 31 30 31 30 31 30 30 30 30 27 26 26 26
17 19 19 20 20 20 21 22 23 23 24 24 25 25 24 30 32 33 32 32 33 33 31 32 32 32 32 32 33 34 32 30 30 30 30 30 31 30 29 30 30 29 27 26 26
18 19 19 20 20 20 22 23 23 24 24 24 25 24 25 32 32 32 32 33 33 33 32 34 33 31 33 32 32 32 30 29 32 30 31 31 28 29 29 29 29 30 29 28 27
19 19 19 19 20 21 23 24 24 24 24 24 23 23 28 32 32 34 33 33 33 33 34 34 33 30 30 30 28 28 30 31 33 31 31 30 30 29 29 29 29 29 29 29 27
19 19 19 19 20 22 24 24 24 24 23 23 22 24 28 31 33 34 34 33 33 32 32 32 26 28 26 27 29 30 30 31 34 32 31 29 29 30 29 30 29 29 29 29 28
18 18 19 20 21 22 24 24 22 23 23 26 27 27 28 31 33 33 34 33 32 30 30 29 28 27 29 29 30 31 30 30 33 34 32 30 30 30 30 30 29 29 29 29 29
18 19 21 22 22 22 22 20 25 25 24 24 25 25 28 31 31 33 34 32 32 30 30 27 27 29 29 30 30 29 30 31 32 34 31 31 29 31 30 30 30 29 29 29 29
20 21 22 22 23 22 21 24 25 25 23 26 25 27 29 30 31 32 32 31 32 31 30 28 29 30 31 31 31 31 33 33 33 32 32 32 31 32 32 31 31 31 30 30 29
20 21 22 22 22 22 22 25 26 25 21 28 29 30 31 31 32 32 33 32 31 30 29 28 30 32 32 31 30 32 33 34 34 30 30 30 27 28 29 31 31 31 31 30 30
20 21 21 22 21 20 25 26 27 26 27 30 30 32 29 30 32 33 32 31 30 31 29 29 31 31 31 31 31 31 33 32 32 29 30 29 27 29 30 28 31 31 31 31 30
20 21 21 21 20 25 26 28 27 24 29 31 31 31 31 31 32 32 32 32 31 30 29 28 30 31 30 32 34 31 32 27 23 24 26 28 28 27 29 33 33 30 32 32 31
20 21 20 21 22 25 26 24 23 25 30 30 30 30 30 31 31 31 31 31 28 29 28 28 31 30 32 33 31 29 25 24 26 24 27 25 27 27 31 31 31 31 32 32 31
21 21 21 23 24 25 25 22 26 29 29 31 29 29 30 29 31 31 29 28 29 27 25 27 29 31 32 32 32 30 27 24 29 26 26 26 29 30 29 27 27 31 32 31 29
21 21 21 25 26 24 20 22 25 27 30 31 30 30 30 30 31 31 29 27 28 26 28 26 30 31 33 32 32 31 29 27 23 23 24 25 27 30 28 27 27 27 28 28 28
20 19 21 25 25 24 20 21 23 26 30 31 30 29 29 30 30 28 28 30 31 27 28 29 30 31 31 33 31 33 28 28 22 29 30 25 25 28 28 27 27 27 26 25 25
19 18 23 24 26 18 20 20 25 27 30 31 30 30 30 31 27 27 30 30 30 29 29 26 27 30 30 30 31 27 27 25 22 22 25 25 27 26 28 27 26 25 25 24 24
17 21 23 23 20 14 19 22 25 28 29 30 31 31 31 31 30 28 29 30 31 28 29 29 24 27 31 30 28 29 29 25 24 27 22 23 26 26 26 27 27 27 25 24 24
17 17 22 24 21 19 20 25 27 28 29 31 31 31 31 31 31 31 32 31 31 31 28 27 24 25 27 27 28 28 28 28 22 21 25 25 26 28 26 26 27 26 24 22 22
17 21 19 18 17 22 25 24 26 28 28 30 31 30 30 28 25 29 29 29 29 28 25 25 22 25 25 27 27 29 28 28 25 25 25 24 29 28 28 27 25 25 24 22 21
16 20 20 20 21 22 23 24 25 27 28 29 31 31 30 29 27 28 27 28 29 25 26 26 26 27 26 27 28 29 29 29 30 28 28 28 27 28 27 26 26 24 24 23 22
19 19 17 19 19 23 19 23 25 26 27 29 29 27 26 26 27 27 28 28 28 27 27 23 25 27 28 27 28 30 29 29 29 29 29 28 27 28 26 26 25 25 24 24 23
18 19 18 19 19 21 22 25 26 26 29 27 26 26 26 27 27 27 27 25 28 28 25 24 23 22 26 25 27 27 29 30 28 27 27 27 29 26 28 27 25 26 25 25 24
Height
797 796 795 794 793 792 791 790 788 786 784 782 780 779 776 773 771 770 767 766 766 768 772 775 778 779 782 783 780 778 803 808 792 792 782 772 775 770 766 774 773 777 782 788 799
797 795 794 793 792 792 790 789 788 786 784 782 780 778 776 772 770 769 766 765 765 769 774 777 780 781 788 786 782 787 805 791 772 771 781 774 771 771 775 776 779 782 783 793 800
796 794 793 793 792 791 790 788 787 785 783 781 779 777 775 772 771 766 763 765 767 770 771 776 778 780 789 783 783 779 793 768 767 763 767 772 773 766 776 787 776 784 787 794 799
795 794 793 792 791 790 789 788 786 785 783 780 778 776 773 773 791 763 763 764 768 771 772 775 779 787 789 789 772 784 765 764 764 761 767 774 765 772 772 770 766 776 782 791 799
795 793 792 791 790 789 788 787 785 784 782 780 778 775 773 774 769 762 763 765 768 772 771 772 779 780 782 775 767 775 768 763 763 765 766 765 770 772 774 767 770 780 787 792 796
795 793 792 790 789 788 786 785 784 782 781 780 778 776 775 780 762 761 764 766 767 767 765 766 765 762 767 768 769 761 764 767 769 769 768 776 773 772 771 769 775 781 787 792 793
794 792 790 789 787 786 784 783 782 781 780 779 777 776 776 769 761 762 763 764 765 763 761 759 758 762 759 769 759 759 774 773 771 772 776 772 781 778 767 769 776 780 787 791 793
794 791 789 788 786 784 782 781 780 779 779 778 778 777 777 761 761 760 761 762 762 762 760 756 758 759 762 759 763 773 780 800 765 771 769 777 801 772 766 771 778 779 781 787 789
792 790 788 786 785 782 780 778 778 777 778 778 779 779 775 761 760 758 760 761 761 762 760 758 758 769 768 786 801 796 810 796 777 768 773 782 790 772 766 770 777 778 778 779 785
791 789 787 785 783 780 778 776 776 777 778 778 779 783 766 764 758 757 759 762 763 762 764 765 777 789 797 805 832 814 810 794 782 772 773 789 785 772 767 769 772 775 775 776 779
790 788 785 783 781 778 775 774 778 781 777 774 772 773 764 761 758 756 758 762 764 770 789 782 800 812 800 794 791 795 799 802 776 761 771 779 779 773 768 771 772 772 773 774 775
788 786 783 782 780 777 776 776 778 783 785 765 767 767 762 761 766 757 758 769 774 792 785 801 812 788 785 786 791 796 799 796 776 763 775 780 782 766 766 762 760 761 766 767 769
786 784 782 781 778 777 776 777 776 774 787 771 763 763 759 760 765 763 758 766 778 789 792 808 793 779 784 788 793 789 790 786 788 775 769 775 788 771 760 759 759 757 756 760 760
785 782 781 779 780 777 774 773 772 771 807 782 768 758 755 756 767 753 755 765 778 793 794 798 781 782 787 793 792 798 773 774 778 796 816 784 832 791 775 761 756 750 750 752 753
783 781 780 781 779 778 775 771 768 770 825 770 765 748 753 765 762 759 754 762 785 785 791 800 787 789 794 788 780 792 770 778 780 800 800 804 822 790 770 776 755 741 739 741 744
781 780 779 778 777 775 772 768 769 806 812 776 758 763 768 765 763 758 760 757 765 782 786 789 773 776 778 767 766 770 776 794 809 817 837 811 817 807 781 753 743 736 732 730 735
779 778 778 778 775 774 771 770 812 819 770 779 773 766 773 777 771 768 775 782 797 811 812 795 783 769 764 774 772 782 813 850 845 854 845 818 820 800 756 746 740 730 723 724 733
776 775 774 774 773 774 773 793 814 783 783 760 769 774 783 778 774 774 784 797 783 796 822 822 820 777 764 773 783 789 807 848 846 860 845 816 816 788 753 743 729 721 724 730 734
774 772 771 769 771 775 784 817 803 786 765 768 768 784 786 777 777 780 789 797 785 787 810 823 809 771 761 761 769 790 810 802 840 847 853 831 801 769 754 748 738 736 736 739 741
773 772 769 767 771 774 797 810 792 771 759 760 781 779 794 786 790 792 794 770 775 772 770 792 810 781 770 760 770 776 788 817 838 841 840 839 830 811 782 774 758 751 751 748 746
773 776 766 768 772 785 810 805 781 761 756 763 771 777 778 779 787 794 784 767 762 768 768 787 802 799 781 795 795 802 811 817 831 843 854 858 830 789 780 771 767 759 755 753 753
774 782 768 770 791 806 804 789 770 762 756 757 756 762 768 770 777 785 784 770 751 761 781 777 807 818 794 781 784 788 800 813 840 835 848 848 831 783 773 769 761 757 756 755 755
778 780 773 773 799 802 792 779 769 766 762 758 759 756 755 766 776 769 764 753 749 756 775 778 814 834 819 807 792 804 798 799 823 833 833 844 830 779 777 773 768 766 763 763 760
778 786 781 778 786 787 785 783 776 756 759 753 754 754 762 774 778 778 775 763 756 760 765 770 810 816 839 819 811 809 804 798 814 833 832 832 805 793 783 781 780 772 767 765 766
778 782 781 793 788 784 782 781 780 777 756 751 754 756 764 781 784 784 778 773 764 767 768 778 809 803 806 802 800 801 802 799 800 804 815 808 807 786 781 775 772 772 769 770 769
781 782 780 785 782 778 789 781 776 771 767 760 762 763 767 781 778 787 778 778 781 773 779 789 813 802 807 802 800 800 796 796 795 794 794 798 801 773 767 767 771 769 767 766 764
778 778 780 785 785 786 783 772 765 761 755 751 757 767 774 772 765 764 766 772 771 778 792 798 813 824 823 811 806 820 797 793 797 795 796 806 786 778 772 771 773 770 774 766 762
Wind_Speed
13 12 10 9 8 8 9 10 10 9 9 9 11 12 14 14 11 6 4 2 6 21 16 15 5 3 4 1 3 3 3 4 4 4 2 5 4 4 2 4 7 10 7 14 28
13 11 10 9 8 8 9 10 10 10 9 9 11 12 13 13 9 5 4 5 7 20 18 17 7 5 1 2 3 1 1 5 4 2 3 4 4 6 5 11 3 5 18 28 29
13 11 9 9 8 8 9 10 10 10 9 10 11 12 13 10 2 4 5 12 10 17 9 12 11 5 1 3 4 4 5 5 4 5 1 3 2 2 10 6 6 19 22 22 28
12 11 9 9 9 9 10 10 11 10 9 10 11 11 10 2 4 1 3 13 11 17 8 6 5 4 4 5 9 3 12 5 3 4 4 2 3 3 6 6 11 19 24 23 21
12 11 10 9 9 10 10 12 10 11 10 9 9 11 2 2 6 2 7 10 14 17 14 6 7 6 4 6 5 1 3 5 2 5 2 3 2 2 7 8 15 19 21 22 19
12 11 10 10 10 12 12 13 12 11 9 7 7 7 2 1 3 2 9 13 9 14 7 8 6 7 3 1 2 6 5 4 2 4 2 2 2 5 5 14 16 22 20 20 20
11 11 11 11 11 13 14 13 12 10 7 5 4 3 2 7 1 2 6 4 9 10 4 6 2 4 6 8 2 5 2 4 4 5 4 4 4 4 11 16 18 19 18 17 18
11 11 11 12 14 15 13 12 10 6 3 2 1 1 6 2 7 11 8 7 6 7 11 16 10 3 3 5 8 6 5 2 4 10 5 6 8 6 13 17 17 18 15 18 18
11 12 13 14 16 15 13 11 5 2 1 1 2 1 6 4 6 12 12 5 2 5 9 16 5 3 6 4 6 7 5 8 1 10 4 5 6 8 13 16 16 17 16 14 15
12 13 14 15 16 15 12 7 1 1 2 2 1 2 4 3 3 6 11 10 2 4 5 6 6 3 5 5 3 7 7 6 6 7 6 8 9 11 16 17 18 16 18 15 13
13 14 15 13 13 16 13 1 4 3 2 6 4 3 3 8 4 6 7 6 2 7 0 5 4 4 7 5 6 5 6 6 4 3 3 7 6 14 15 13 17 17 18 17 16
15 14 12 11 13 15 9 2 4 4 6 7 3 6 10 5 3 1 7 4 3 3 1 6 4 9 5 6 6 6 7 5 5 3 7 3 10 6 17 22 22 22 20 19 17
14 13 11 11 13 6 6 3 17 9 2 6 5 4 5 9 5 5 5 3 3 0 1 4 7 6 4 7 7 4 3 1 4 6 4 5 4 4 7 10 13 15 18 16 20
13 12 11 12 2 6 5 16 18 3 4 4 3 6 4 5 3 8 7 6 1 7 4 5 4 1 3 4 3 3 2 2 2 4 2 4 5 6 8 12 11 17 18 18 19
13 11 10 9 7 2 8 19 6 4 4 3 3 1 1 7 3 3 4 5 8 5 5 7 6 6 5 6 5 8 2 3 3 4 2 5 3 7 5 8 14 18 20 20 19
11 10 8 7 6 5 17 13 2 5 1 1 4 5 5 3 3 0 3 4 2 5 2 8 1 4 8 5 2 3 2 6 5 3 4 4 4 7 4 6 5 8 17 22 19
10 10 8 7 3 6 17 4 4 3 3 4 4 4 3 3 3 3 5 4 4 4 3 7 4 5 2 2 2 6 7 4 6 5 4 1 2 10 12 8 12 11 16 19 14
10 10 10 14 7 8 7 5 2 1 5 1 4 3 5 5 3 1 4 2 2 5 3 2 7 5 1 4 5 3 6 5 2 1 6 3 4 7 7 8 6 1 2 8 9
8 6 6 6 9 5 5 2 6 6 3 2 5 4 3 3 3 2 4 5 7 9 7 4 4 5 3 3 5 1 1 3 6 3 3 4 8 7 9 11 11 10 11 6 7
3 3 5 2 13 6 4 5 4 5 4 1 4 5 4 2 4 6 6 5 5 12 4 5 2 2 7 4 3 3 6 3 4 1 2 6 5 4 11 11 11 9 9 8 8
2 3 1 15 10 5 3 6 6 6 2 1 3 3 4 4 8 6 5 5 6 5 7 6 4 6 2 4 1 6 5 5 5 4 5 0 7 5 4 3 2 7 7 7 10
2 2 5 21 3 1 2 5 4 4 1 4 3 3 5 5 4 7 7 7 5 7 9 2 5 3 2 1 5 4 4 4 5 5 1 3 5 9 7 4 2 5 6 4 7
1 1 14 3 2 2 5 4 3 3 2 4 2 2 2 3 3 4 2 4 2 4 7 6 1 3 8 7 5 6 5 4 4 2 2 3 5 4 6 3 2 2 0 3 7
2 2 3 3 1 5 1 5 4 3 6 5 3 4 3 5 7 3 6 7 6 5 9 6 3 6 6 4 2 3 5 3 5 3 1 4 3 5 3 2 6 5 3 5 5
2 2 3 3 5 5 4 3 4 5 4 6 1 4 4 3 3 3 4 5 6 9 5 5 4 3 2 3 3 2 1 3 3 2 3 5 4 7 10 11 9 7 3 6 7
2 2 4 1 3 2 6 5 7 6 4 5 6 2 6 5 4 4 1 3 1 7 4 4 1 2 2 2 1 1 2 2 1 2 2 1 5 4 8 8 8 9 11 9 9
4 2 4 3 4 2 3 5 6 6 3 1 12 8 9 7 6 5 3 3 1 4 2 4 4 3 3 3 4 3 3 1 2 2 3 1 4 7 1 1 6 5 5 6 7
Wind_Direction
346 346 351 352 354 354 353 352 349 351 343 338 340 341 338 333 329 308 267 303 173 167 160 151 175 349 28 55 284 140 41 292 232 152 231 141 138 167 124 143 162 173 138 143 149
344 347 348 349 351 348 349 349 347 343 339 335 337 339 335 330 326 257 228 180 179 169 156 154 173 136 45 293 291 214 157 237 240 104 41 172 157 153 160 157 159 110 112 138 145
345 350 348 346 346 346 341 344 343 339 335 332 336 336 330 327 314 236 200 193 187 177 173 177 151 148 206 182 235 210 224 215 254 253 58 199 178 106 126 186 190 148 144 147 152
351 350 347 343 341 340 338 339 338 336 331 331 334 334 332 352 153 180 202 188 180 185 201 195 151 183 236 227 189 227 241 191 270 205 145 212 152 166 179 219 148 152 151 154 163
352 349 346 342 334 334 337 333 337 330 326 330 332 338 345 9 254 281 160 167 164 182 212 199 183 203 234 230 101 253 252 209 241 253 234 344 229 209 205 147 136 142 155 166 171
347 345 342 335 331 331 332 331 327 321 323 326 334 336 5 214 287 230 170 167 182 210 224 199 225 245 257 41 102 219 204 164 150 188 311 190 244 172 174 154 154 152 165 175 177
343 338 337 330 329 330 329 327 322 318 319 324 341 357 25 222 339 183 184 209 207 224 273 234 274 6 334 329 148 250 91 32 184 166 247 200 277 213 144 160 169 168 170 178 190
334 334 331 328 326 328 327 322 322 322 323 344 343 14 242 264 239 263 236 260 245 249 270 303 333 247 34 304 351 32 73 90 229 160 255 131 268 166 161 160 178 188 184 179 198
329 328 326 326 326 326 327 322 327 343 317 73 95 74 265 277 241 235 227 231 279 270 283 294 5 36 13 34 1 7 324 318 177 180 125 152 266 176 177 169 183 193 200 201 183
326 324 322 324 327 325 330 317 311 177 128 88 299 25 281 235 246 222 215 228 300 332 355 25 42 26 37 62 311 315 322 322 293 169 176 180 261 180 184 183 189 195 204 207 209
324 321 321 328 328 326 340 50 30 16 179 199 182 255 268 324 255 211 185 140 102 52 146 352 44 264 268 219 233 254 271 283 255 217 143 220 235 198 193 199 198 201 206 207 209
322 321 321 327 321 321 327 21 73 16 309 232 227 277 273 259 315 5 143 128 113 194 42 15 271 262 273 267 258 215 251 286 314 198 170 170 241 227 188 205 204 200 203 208 207
323 318 320 323 314 315 319 269 337 329 163 295 192 195 220 155 201 225 119 134 127 191 55 161 248 334 336 324 326 297 225 163 229 327 46 3 338 136 217 220 215 217 213 210 206
317 314 320 326 306 320 284 334 334 149 66 280 229 267 159 145 278 211 162 138 123 197 206 232 294 36 334 278 209 282 289 216 255 64 279 61 276 234 233 229 211 214 203 205 210
313 309 313 315 301 254 320 331 12 114 74 184 206 150 36 136 300 28 164 69 178 190 98 256 297 320 305 240 165 231 346 5 37 110 59 353 54 268 164 230 231 225 208 202 205
311 301 304 300 279 278 337 344 79 37 144 224 159 142 101 19 302 7 143 72 149 145 359 230 314 223 218 216 227 12 349 38 51 62 37 257 113 284 265 225 261 224 219 202 197
306 294 283 263 262 329 341 35 42 136 359 193 180 130 109 168 261 149 159 179 154 85 344 327 263 292 203 269 3 80 50 350 6 14 224 32 65 240 283 281 240 236 202 202 188
301 290 277 252 259 322 358 51 188 202 221 250 111 71 157 164 261 103 98 170 221 97 128 101 348 353 265 198 178 67 135 144 245 264 273 304 258 277 309 320 336 47 141 149 165
300 292 266 263 226 219 72 90 215 211 264 163 71 108 229 221 167 118 187 215 210 171 159 141 274 312 274 152 114 186 41 185 107 18 35 284 301 325 336 4 26 60 78 79 115
316 305 258 182 144 115 78 234 245 230 341 144 133 164 172 212 155 166 189 228 200 191 161 192 18 302 293 54 22 108 165 19 15 136 315 301 294 264 334 346 349 47 69 74 84
7 35 281 153 137 52 166 234 272 260 280 207 168 155 167 189 191 197 212 278 203 152 144 138 115 287 19 56 144 13 13 51 121 116 161 234 288 214 287 26 13 43 64 78 99
52 54 168 155 69 43 181 210 287 298 358 301 139 172 166 186 145 182 204 229 160 138 152 170 130 169 179 241 349 110 166 112 107 281 116 157 286 342 120 122 115 85 97 98 122
98 243 165 313 150 245 279 281 260 300 290 307 62 87 11 63 82 68 288 9 102 106 160 180 40 45 356 0 5 55 332 94 114 88 174 100 268 349 354 61 296 231 290 29 131
84 76 345 49 146 135 345 276 261 253 248 223 180 85 83 53 18 29 22 12 355 57 44 88 99 138 180 198 207 9 340 46 100 67 225 226 277 156 194 203 303 283 240 139 101
58 261 197 222 282 226 162 282 308 330 265 180 77 125 134 102 67 11 3 8 16 349 45 81 94 108 179 185 160 221 274 3 46 164 157 265 233 241 206 197 195 233 214 148 160
110 60 1 288 312 291 161 248 224 256 243 258 135 85 119 122 180 168 175 48 333 0 60 19 126 149 157 72 217 220 355 27 341 328 300 156 272 254 276 147 180 197 195 193 197
5 41 110 298 345 89 211 241 253 194 295 177 138 102 90 160 172 174 164 131 116 134 86 69 112 74 249 341 82 8 224 290 97 344 248 48 262 323 330 128 178 174 267 210 190